EW4694 Weather Reports


Display with metric or nautical units.
time (UTC)temp
F
wind
direction
speed
MPH
gust
MPH
rain 1hr
in
rain 24hr
in
rain mn
in
humidity
%
barometer
mb
20260510201505 65 360 0.0 0.0 0.00 0.24 0.24 54 1016.3
20260510200001 66 351 0.0 0.0 0.00 0.24 0.24 54 1016.1
20260510194542 65 331 0.0 0.0 0.00 0.24 0.24 46 1016.2
20260510193036 64 324 0.0 0.0 0.00 0.24 0.24 42 1016.3
20260510191513 64 315 0.0 0.0 0.00 0.24 0.24 40 1016.4
20260510190008 64 338 0.0 0.0 0.00 0.24 0.24 43 1016.2
20260510184547 64 9 0.0 0.0 0.00 0.24 0.24 31 1016.0
20260510183044 64 338 0.0 0.0 0.00 0.24 0.24 34 1015.9
20260510181521 63 313 0.0 0.0 0.00 0.24 0.24 25 1015.7
20260510180017 63 313 0.0 0.0 0.00 0.24 0.24 33 1015.7
20260510174559 63 284 0.0 0.0 0.00 0.24 0.24 25 1015.5
20260510173051 63 323 0.0 0.0 0.02 0.24 0.24 17 1015.5
20260510171530 63 342 0.0 0.0 0.11 0.24 0.24 18 1015.4
20260510170025 63 314 0.0 0.0 0.20 0.24 0.24 1 1015.4
20260510164507 62 308 0.0 0.0 0.24 0.24 0.24 1 1015.1
20260510163106 61 304 0.0 0.0 0.22 0.22 0.22 6 1015.2
20260510161537 62 298 0.0 0.0 0.13 0.13 0.13 26 1015.5
20260510160034 65 298 0.0 4.0 0.03 0.03 0.03 55 1015.5
20260510154511 69 288 0.0 0.0 0.00 0.00 0.00 62 1014.7
20260510153007 70 300 0.0 0.0 0.00 0.00 0.00 64 1014.6
20260510151550 69 246 0.0 0.0 0.00 0.00 0.00 64 1014.9
20260510150049 68 282 0.0 0.0 0.00 0.00 0.00 65 1015.1
20260510144530 68 297 0.0 0.0 0.00 0.00 0.00 65 1014.9
20260510143016 68 272 0.0 0.0 0.00 0.00 0.00 65 1014.8
20260510141614 67 277 0.0 0.0 0.00 0.00 0.00 65 1014.6
20260510140049 66 259 0.0 0.0 0.00 0.00 0.00 65 1014.6
20260510134602 66 278 0.0 0.0 0.00 0.00 0.00 65 1014.6
20260510133024 64 244 0.0 0.0 0.00 0.00 0.00 63 1014.9
20260510131520 63 262 0.0 0.0 0.00 0.00 0.00 62 1015.2
20260510130058 62 309 0.0 0.0 0.00 0.00 0.00 50 1015.1
20260510124602 59 285 0.0 0.0 0.00 0.00 0.00 1 1015.1
20260510123032 56 273 0.0 0.0 0.00 0.00 0.00 1 1015.0
20260510121528 55 166 0.0 0.0 0.00 0.00 0.00 1 1014.8
20260510120005 53 146 0.0 0.0 0.00 0.00 0.00 1 1014.5
20260510114601 51 76 0.0 0.0 0.00 0.00 0.00 1 1014.4
20260510113039 49 76 0.0 0.0 0.00 0.00 0.00 1 1014.0
20260510111546 48 76 0.0 0.0 0.00 0.00 0.00 1 1013.7
20260510110014 0 0.0 0.0 0.00 0.00 0.00 1013.4
20260510104512 0 0.0 0.0 0.00 0.00 0.00 1013.4
20260510103047 0 0.0 0.0 0.00 0.00 0.00 1013.2
20260510101543 0 0.0 0.0 0.00 0.00 0.00 1013.0
20260510100022 0 0.0 0.0 0.00 0.00 0.00 1013.0
20260510094526 0 0.0 0.0 0.00 0.00 0.00 1012.9
20260510093057 47 219 0.0 0.0 0.00 0.00 0.00 1 1012.9
20260510091551 47 219 0.0 0.0 0.00 0.00 0.00 1 1012.5
20260510090030 47 219 0.0 0.0 0.00 0.00 0.00 1 1012.5
20260510084526 47 219 0.0 0.0 0.00 0.00 0.00 1 1012.4
20260510083003 47 132 0.0 0.0 0.00 0.00 0.00 1 1012.3
20260510081629 47 131 0.0 0.0 0.00 0.00 0.00 1 1012.2
20260510080037 48 131 0.0 0.0 0.00 0.00 0.00 1 1012.2
20260510074535 47 131 0.0 0.0 0.00 0.00 0.00 1 1011.9
20260510073018 47 131 0.0 0.0 0.00 0.00 0.00 1 1012.0
20260510071515 47 131 0.0 0.0 0.00 0.00 0.00 1 1012.1
20260510070010 47 131 0.0 0.0 0.00 0.00 0.00 1 1012.1
20260510064507 47 131 0.0 0.0 0.00 0.00 0.00 1 1012.0
20260510063002 47 131 0.0 0.0 0.00 0.00 0.00 1 1012.1
20260510061557 47 131 0.0 0.0 0.00 0.00 0.00 1 1012.2
20260510060057 47 131 0.0 0.0 0.00 0.00 0.00 1 1012.1
20260510054549 47 131 0.0 0.0 0.00 0.00 0.00 1 1012.2
20260510053032 47 131 0.0 0.0 0.00 0.00 0.00 1 1012.4
20260510051524 47 131 0.0 0.0 0.00 0.00 0.00 1 1012.4
20260510050002 48 131 0.0 0.0 0.00 0.00 0.00 1 1012.4
20260510044557 47 131 0.0 0.0 0.00 0.00 0.00 1 1012.3
20260510043047 48 131 0.0 0.0 0.00 0.00 0.00 1 1012.2
20260510041533 48 131 0.0 0.0 0.00 0.00 0.00 1 1012.2
20260510040010 48 131 0.0 0.0 0.00 0.00 0.00 1 1012.0
20260510034506 48 130 0.0 0.0 0.00 0.00 0.00 1 1011.8
20260510033053 49 105 0.0 0.0 0.00 0.00 0.00 1 1011.9
20260510031618 49 104 0.0 0.0 0.00 0.00 0.00 1 1011.6
20260510030041 49 104 0.0 0.0 0.00 0.00 0.00 1 1011.6
20260510024538 50 104 0.0 0.0 0.00 0.00 0.00 1 1011.6
20260510023043 51 104 0.0 0.0 0.00 0.00 0.00 3 1011.3
20260510021527 51 104 0.0 0.0 0.00 0.00 0.00 8 1011.2
20260510020023 52 104 0.0 0.0 0.00 0.00 0.00 14 1011.0
20260510014520 53 103 0.0 0.0 0.00 0.00 0.00 27 1010.6
20260510013058 54 103 0.0 0.0 0.00 0.00 0.00 32 1010.4
20260510011608 56 103 0.0 0.0 0.00 0.00 0.00 43 1010.3
20260510010034 58 103 0.0 0.0 0.00 0.00 0.00 54 1010.0
20260510004630 60 103 0.0 0.0 0.00 0.00 0.00 61 1009.9
20260510003006 64 74 0.0 0.0 0.00 0.00 0.00 65 1009.7
20260510001506 65 213 0.0 0.0 0.00 0.00 0.00 63 1009.3
20260510000055 66 213 0.0 0.0 0.00 0.00 0.00 62 1009.2
20260509234601 67 280 0.0 0.0 0.00 0.00 0.00 61 1009.1
20260509233057 68 277 0.0 0.0 0.00 0.00 0.00 58 1008.9
20260509231559 68 260 0.0 0.0 0.00 0.00 0.00 57 1008.9
20260509230045 68 277 0.0 4.0 0.00 0.00 0.00 56 1008.9
20260509224541 69 292 0.0 0.0 0.00 0.00 0.00 58 1009.2
20260509223038 69 259 0.0 0.0 0.00 0.00 0.00 57 1009.3
20260509221537 68 268 0.0 1.0 0.00 0.00 0.00 57 1009.4
20260509220011 69 277 0.0 0.0 0.00 0.00 0.00 55 1009.4
20260509214506 68 281 0.0 0.0 0.00 0.00 0.00 58 1009.4
20260509213059 67 267 0.0 0.0 0.00 0.00 0.00 60 1009.5
20260509211606 68 265 0.0 0.0 0.00 0.00 0.00 59 1009.5
20260509210019 67 282 0.0 0.0 0.00 0.00 0.00 59 1009.6
20260509204515 68 304 0.0 0.0 0.00 0.00 0.00 56 1009.4
20260509203113 67 275 0.0 2.0 0.00 0.00 0.00 58 1009.3